Date String (YYYY-MM-DD hh:mm:ss) UTC,Instrument flags,absolute air pressure of the measurement (hPa),sample flow rate (lpm),inlet stack bypass flow (lpm),air temperature of the measurement (°C),ambient temperature measured by the external sensor (°C),aerosol sample conditioner tube jacket temperature (°C),OPC LED temperature (°C),internal box temperature (°C),relative humidity of the measurement (%),span deviation,mass concentration of particles derived from Lorenz-Mie calculation of OPC scattering (μg/m³),mass concentration of particles derived from Lorenz-Mie calculation of OPC scattering (μg/m³),mass concentration of particles derived from Lorenz-Mie calculation of OPC scattering (μg/m³)
DateTimeUTC,F1_M11,P_M11,Q1_M11,Q2_M11,T1_M11,T2_M11,T3_M11,T4_M11,T5_M11,U1_M11,ZSPAN_M11,X0_M11,X2_M11,X1_M11
2023-06-14 06:00:00,SystemResetWarning,0828.4,5.00,000.00,029.6,027.8,000.0,038.5,030.9,22.0,0000.0,0003.49,0002.17,0001.78
2023-06-14 06:01:00,SystemResetWarning,0828.4,5.00,000.00,029.6,027.8,000.0,038.4,030.9,22.4,0000.0,0003.38,0002.09,0001.72
2023-06-14 06:02:00,SystemResetWarning,0828.3,5.01,000.00,029.6,027.8,000.0,038.4,030.9,22.4,0000.0,0003.25,0002.02,0001.67
2023-06-14 06:03:00,SystemResetWarning,0828.3,5.01,000.00,029.6,027.8,000.0,038.4,030.9,22.5,0000.0,0003.14,0001.98,0001.66
2023-06-14 06:04:00,SystemResetWarning,0828.3,5.00,000.00,029.6,027.9,000.0,038.4,031.0,23.2,0000.0,0003.09,0001.98,0001.67
2023-06-14 06:05:00,SystemResetWarning,0828.3,4.99,000.00,029.6,027.9,000.0,038.3,031.0,22.5,0000.0,0002.87,0002.03,0001.73
2023-06-14 06:06:00,SystemResetWarning,0828.4,4.99,000.00,029.6,028.0,000.0,038.3,031.0,21.8,0000.0,0003.04,0002.12,0001.77
2023-06-14 06:07:00,SystemResetWarning,0828.3,5.00,000.00,029.6,028.0,000.0,038.3,031.0,21.8,0000.0,0003.12,0002.19,0001.81
2023-06-14 06:08:00,SystemResetWarning,0828.3,5.01,000.00,029.6,028.0,000.0,038.3,031.1,21.8,0000.0,0003.28,0002.30,0001.88
2023-06-14 06:09:00,SystemResetWarning,0828.3,5.01,000.00,029.6,028.1,000.0,038.3,031.1,22.0,0000.0,0003.42,0002.40,0001.95
2023-06-14 06:10:00,SystemResetWarning,0828.3,5.00,000.00,029.6,028.1,000.0,038.3,031.1,21.9,0000.0,0003.55,0002.46,0002.02
2023-06-14 06:11:00,SystemResetWarning,0828.2,5.00,000.00,029.7,028.1,000.0,038.3,031.1,21.7,0000.0,0003.45,0002.49,0002.09
2023-06-14 06:12:00,SystemResetWarning,0828.3,5.00,000.00,029.7,028.1,000.0,038.3,031.1,21.9,0000.0,0003.66,0002.61,0002.17
2023-06-14 06:13:00,SystemResetWarning,0828.2,5.00,000.00,029.7,028.1,000.0,038.3,031.2,22.6,0000.0,0003.83,0002.70,0002.24
2023-06-14 06:14:00,SystemResetWarning,0828.2,4.99,000.00,029.7,028.2,000.0,038.3,031.2,22.5,0000.0,0003.95,0002.78,0002.30
2023-06-14 06:15:00,SystemResetWarning,0828.2,4.99,000.00,029.7,028.2,000.0,038.3,031.2,21.9,0000.0,0004.00,0002.84,0002.35
2023-06-14 06:16:00,SystemResetWarning,0828.2,5.00,000.00,029.7,028.2,000.0,038.3,031.2,20.9,0000.0,0004.05,0002.87,0002.36
2023-06-14 06:17:00,SystemResetWarning,0828.2,5.01,000.00,029.7,028.2,000.0,038.3,031.2,21.0,0000.0,0003.94,0002.85,0002.37
2023-06-14 06:18:00,SystemResetWarning,0828.2,5.01,000.00,029.8,028.2,000.0,038.3,031.2,21.3,0000.0,0003.97,0002.88,0002.39
2023-06-14 06:19:00,SystemResetWarning,0828.2,5.01,000.00,029.8,028.2,000.0,038.3,031.3,21.2,0000.0,0003.91,0002.86,0002.38
2023-06-14 06:20:00,SystemResetWarning,0828.2,4.99,000.00,029.8,028.2,000.0,038.3,031.3,21.0,0000.0,0003.87,0002.85,0002.37
2023-06-14 06:21:00,SystemResetWarning,0828.1,4.98,000.00,029.8,028.2,000.0,038.3,031.3,20.9,0000.0,0003.81,0002.86,0002.37
2023-06-14 06:22:00,SystemResetWarning,0828.1,5.01,000.00,029.8,028.2,000.0,038.4,031.3,20.6,0000.0,0003.82,0002.87,0002.36
2023-06-14 06:23:00,SystemResetWarning,0828.1,5.01,000.00,029.8,028.2,000.0,038.4,031.3,21.5,0000.0,0003.76,0002.85,0002.35
2023-06-14 06:24:00,SystemResetWarning,0828.1,5.00,000.00,029.8,028.2,000.0,038.4,031.3,21.6,0000.0,0003.60,0002.80,0002.34
2023-06-14 06:25:00,SystemResetWarning,0828.1,4.99,000.00,029.8,028.2,000.0,038.4,031.3,22.4,0000.0,0003.58,0002.79,0002.33
2023-06-14 06:26:00,SystemResetWarning,0828.1,5.00,000.00,029.8,028.3,000.0,038.4,031.3,22.8,0000.0,0003.56,0002.78,0002.33
2023-06-14 06:27:00,SystemResetWarning,0828.1,4.99,000.00,029.8,028.3,000.0,038.4,031.3,22.7,0000.0,0003.55,0002.76,0002.33
2023-06-14 06:28:00,SystemResetWarning,0828.1,5.00,000.00,029.8,028.3,000.0,038.4,031.3,22.6,0000.0,0003.55,0002.75,0002.32
2023-06-14 06:29:00,SystemResetWarning,0828.1,5.01,000.00,029.9,028.3,000.0,038.4,031.3,22.4,0000.0,0003.56,0002.73,0002.31
2023-06-14 06:30:00,SystemResetWarning,0828.1,5.01,000.00,029.9,028.3,000.0,038.4,031.3,22.1,0000.0,0003.57,0002.71,0002.29
2023-06-14 06:31:00,SystemResetWarning,0828.1,5.00,000.00,029.9,028.3,000.0,038.4,031.4,22.8,0000.0,0003.54,0002.70,0002.29
2023-06-14 06:32:00,SystemResetWarning,0828.1,4.99,000.00,029.9,028.3,000.0,038.4,031.4,23.4,0000.0,0004.32,0002.69,0002.29
2023-06-14 06:33:00,SystemResetWarning,0828.1,4.99,000.00,029.9,028.3,000.0,038.4,031.4,23.8,0000.0,0004.25,0002.65,0002.28
2023-06-14 06:34:00,SystemResetWarning,0828.0,5.00,000.00,029.9,028.3,000.0,038.4,031.4,23.9,0000.0,0004.24,0002.64,0002.28
2023-06-14 06:35:00,SystemResetWarning,0828.1,5.00,000.00,029.9,028.3,000.0,038.4,031.4,23.1,0000.0,0004.41,0002.66,0002.29
2023-06-14 06:36:00,SystemResetWarning,0828.1,5.00,000.00,029.9,028.3,000.0,038.4,031.4,22.9,0000.0,0004.55,0002.71,0002.30
2023-06-14 06:37:00,SystemResetWarning,0828.0,5.00,000.00,029.9,028.3,000.0,038.4,031.3,23.0,0000.0,0004.73,0002.77,0002.32
2023-06-14 06:38:00,SystemResetWarning,0828.0,5.00,000.00,029.9,028.3,000.0,038.4,031.4,22.6,0000.0,0004.72,0002.79,0002.33
2023-06-14 06:39:00,SystemResetWarning,0828.1,5.00,000.00,029.9,028.3,000.0,038.4,031.4,22.1,0000.0,0004.72,0002.79,0002.34
2023-06-14 06:40:00,SystemResetWarning,0828.1,5.00,000.00,029.9,028.3,000.0,038.4,031.4,21.5,0000.0,0004.63,0002.78,0002.34
2023-06-14 06:41:00,SystemResetWarning,0828.1,5.00,000.00,029.9,028.3,000.0,038.4,031.4,22.1,0000.0,0005.19,0002.78,0002.36
2023-06-14 06:42:00,SystemResetWarning,0828.1,5.00,000.00,029.9,028.3,000.0,038.4,031.4,21.7,0000.0,0005.91,0002.78,0002.37
2023-06-14 06:43:00,SystemResetWarning,0828.0,5.00,000.00,029.9,028.3,000.0,038.4,031.4,21.4,0000.0,0005.09,0002.78,0002.39
2023-06-14 06:44:00,SystemResetWarning,0828.1,5.00,000.00,029.9,028.3,000.0,038.4,031.4,21.4,0000.0,0005.20,0002.85,0002.42
2023-06-14 06:45:00,SystemResetWarning,0828.1,4.99,000.00,029.9,028.3,000.0,038.4,031.4,21.4,0000.0,0005.21,0002.87,0002.45
2023-06-14 06:46:00,SystemResetWarning,0828.0,5.00,000.00,029.9,028.3,000.0,038.4,031.4,21.5,0000.0,0005.13,0002.87,0002.48
2023-06-14 06:47:00,SystemResetWarning,0828.1,5.00,000.00,029.9,028.3,000.0,038.4,031.4,21.4,0000.0,0005.20,0002.87,0002.49
2023-06-14 06:48:00,SystemResetWarning,0828.0,5.00,000.00,029.9,028.3,000.0,038.5,031.4,21.4,0000.0,0005.38,0002.84,0002.49
2023-06-14 06:49:00,SystemResetWarning,0828.1,5.00,000.00,029.9,028.3,000.0,038.5,031.4,21.4,0000.0,0005.48,0002.84,0002.49
2023-06-14 06:50:00,SystemResetWarning,0828.0,5.00,000.00,029.9,028.3,000.0,038.5,031.4,21.6,0000.0,0005.53,0002.88,0002.53
2023-06-14 06:51:00,SystemResetWarning,0828.0,5.00,000.00,029.9,028.3,000.0,038.5,031.4,21.6,0000.0,0005.60,0002.93,0002.56
2023-06-14 06:52:00,SystemResetWarning,0828.1,5.00,000.00,029.9,028.3,000.0,038.5,031.4,21.9,0000.0,0005.04,0002.93,0002.57
2023-06-14 06:53:00,SystemResetWarning,0828.2,5.01,000.00,029.9,028.3,000.0,038.5,031.4,22.3,0000.0,0004.52,0003.00,0002.61
2023-06-14 06:54:00,SystemResetWarning,0828.2,5.00,000.00,029.9,028.3,000.0,038.5,031.4,22.6,0000.0,0004.52,0003.00,0002.60
2023-06-14 06:55:00,SystemResetWarning,0828.2,5.00,000.00,029.9,028.3,000.0,038.5,031.4,22.5,0000.0,0004.51,0002.98,0002.59
2023-06-14 06:56:00,SystemResetWarning,0828.2,4.99,000.00,029.9,028.2,000.0,038.5,031.4,21.5,0000.0,0004.50,0002.97,0002.58
2023-06-14 06:57:00,SystemResetWarning,0828.2,5.00,000.00,029.9,028.2,000.0,038.5,031.4,21.5,0000.0,0004.44,0002.96,0002.58
2023-06-14 06:58:00,SystemResetWarning,0828.2,5.00,000.00,029.9,028.2,000.0,038.5,031.4,21.0,0000.0,0004.47,0002.99,0002.57
2023-06-14 06:59:00,SystemResetWarning,0828.2,4.99,000.00,029.9,028.2,000.0,038.5,031.4,20.8,0000.0,0004.20,0002.99,0002.58
